This demonstration page uses our WeatherBlox Daily Observations layout. Learn more.

Left ArrowRight Arrow

38.20091, -84.87328

Hourly Observations for September 22, 2023

Temp ( °F °C ) Dew Point ( °F °C ) Humidity (%) Winds ( mph kmh ) Pressure ( in mb ) Visibility ( mi km ) Precip ( " mm )
12:53 am 00:53 Clear 62 16.7 56 13.3 80 80 Calm 30.15 1021 10 16 0.00 0.00
1:53 am 01:53 Clear 59 15 55 12.8 87 87 NNW 3 6 30.14 1021 10 16 0.00 0.00
2:53 am 02:53 Clear 58 14.4 55 12.8 90 90 Calm 30.14 1021 10 16 0.00 0.00
3:53 am 03:53 Clear 56 13.3 53 11.7 90 90 Calm 30.14 1021 10 16 0.00 0.00
4:53 am 04:53 Clear 57 13.9 54 12.2 89 89 Calm 30.14 1021 10 16 0.00 0.00
5:53 am 05:53 Clear 55 12.8 53 11.7 93 93 Calm 30.16 1022 10 16 0.00 0.00
6:53 am 06:53 Clear 56 13.3 53 11.7 90 90 Calm 30.17 1022 10 16 0.00 0.00
7:53 am 07:53 Sunny 56 13.3 54 12.2 93 93 Calm 30.18 1022 10 16 0.00 0.00
8:53 am 08:53 Sunny 64 17.8 58 14.4 80 80 Calm 30.18 1022 10 16 0.00 0.00
9:53 am 09:53 Sunny 70 21.1 59 15 68 68 Calm 30.18 1022 10 16 0.00 0.00
10:53 am 10:53 Sunny 76 24.4 60 15.6 58 58 Calm 30.17 1022 10 16 0.00 0.00
11:53 am 11:53 Sunny 81 27.2 61 16.1 51 51 NE 6 9 30.14 1021 10 16 0.00 0.00
12:53 pm 12:53 Partly Cloudy 84 28.9 58 14.4 41 41 ENE 8 13 30.13 1020 10 16 0.00 0.00
1:53 pm 13:53 Mostly Cloudy 85 29.4 57 13.9 39 39 VRB 7 11 30.11 1020 10 16 0.00 0.00
2:53 pm 14:53 Partly Cloudy 86 30 58 14.4 39 39 ENE 10 17 30.09 1019 10 16 0.00 0.00
3:53 pm 15:53 Sunny 85 29.4 56 13.3 37 37 NNE 8 13 30.06 1018 10 16 0.00 0.00
4:53 pm 16:53 Mostly Sunny 83 28.3 57 13.9 41 41 ENE 6 9 30.07 1018 10 16 0.00 0.00
5:53 pm 17:53 Sunny 83 28.3 54 12.2 37 37 ENE 9 15 30.05 1018 10 16 0.00 0.00
6:53 pm 18:53 Sunny 81 27.2 52 11.1 37 37 ENE 7 11 30.05 1018 10 16 0.00 0.00
7:53 pm 19:53 Clear 76 24.4 54 12.2 47 47 ENE 6 9 30.05 1018 10 16 0.00 0.00
8:53 pm 20:53 Clear 74 23.3 54 12.2 50 50 ENE 3 6 30.05 1018 10 16 0.00 0.00
9:53 pm 21:53 Clear 71 21.7 53 11.7 53 53 Calm 30.05 1018 10 16 0.00 0.00
10:53 pm 22:53 Clear 69 20.6 53 11.7 57 57 ENE 5 7 30.05 1018 10 16 0.00 0.00
11:53 pm 23:53 Clear 66 18.9 52 11.1 61 61 Calm 30.05 1018 10 16 0.00 0.00

Powered by Vaisala Xweather